Probability
0 0 0 0 0 0 0 0 0 0 0 0 0 0 0 0 0 0 0 0 0 0 0 0 0 0 0 0 0 0 0 0 0 0 0 0 0 0 0 0 0 0 0 0
0 0 0 0 0 0 0 0 0 0 0 0 0 0 0 0 0 0 0 0 0 0 0 0 0 0 0 0 0 0 0 0 0 0 0 0 0 0 0 0 0 0 0 0
0 0 0 0 0 0 0 0 0 0 0 0 0 0 0 0 0 0 0 0 0 0 0 0 0 0 0 0 0 0 0 0 0 0 0 0 0 0 0 0 0 0 0 0
0 0 0 0 0 0 0 0 0 0 0 0 0 0 0 0 0 0 0 0 0 0 0 0 0 0 0 0 0 0 0 0 0 0 0 0 0 0 0 0 0 0 0 0
0 0 0 0 0 0 0 0 0 0 0 0 0 0 0 0 0 0 0 0 0 0 0 0 0 0 0 0 0 0 0 0 0 0 0 0 0 0 0 0 0 0 0 0
0 0 0 0 0 0 0 0 0 0 0 0 0 0 0 0 0 0 0 0 0 0 0 0 0 0 0 0 0 0 0 0 0 0 0 0 0 0 0 0 0 0 0 0
0 0 0 0 0 0 0 0 0 0 0 0 0 0 0 0 0 0 0 0 0 0 0 0 0 0 0 0 0 0 0 0 0 0 0 0 0 0 0 0 0 0 0 0
0 0 0 0 0 0 0 0 0 0 0 0 0 0 0 0 0 0 0 0 0 0 0 0 0 0 0 0 0 0 0 0 0 0 0 0 0 0 0 0 0 0 0 0
0 0 0 0 0 0 0 0 0 0 0 0 0 0 0 0 0 0 0 0 0 0 0 0 0 0 0 0 0 0 0 0 0 0 0 0 0 0 0 0 0 0 0 0
0 0 0 0 0 0 0 0 0 0 0 0 0 0 0 0 0 0 0 0 0 0 0 0 0 0 0 0 0 0 0 0 0 0 0 0 0 0 0 0 0 0 0 0
0 0 0 0 0 0 0 0 0 0 0 0 0 0 0 0 0 0 0 0 0 0 0 0 0 0 0 0 0 0 0 0 0 0 0 0 0 0 0 0 0 0 0 0
0 0 0 0 0 0 0 0 0 0 0 0 0 0 0 0 0 0 0 0 0 0 0 0 0 0 0 0 0 0 0 0 0 0 0 0 0 0 0 0 0 0 0 0
0 0 0 0 0 0 0 0 0 0 0 0 0 0 0 0 0 0 0 0 0 0 0 0 0 0 0 0 0 0 0 0 0 0 0 0 0 0 0 0 0 0 0 0
0 0 0 0 0 0 0 0 0 0 0 0 0 0 0 0 0 0 0 0 0 0 0 0 0 0 0 0 0 0 0 0 0 0 0 0 0 0 0 0 0 0 0 0
0 0 0 0 0 0 0 0 0 0 0 0 0 0 0 0 0 0 0 0 0 0 0 0 0 0 0 0 0 0 0 0 0 0 0 0 0 0 0 0 0 0 0 0
0 0 0 0 0 0 0 0 0 0 0 0 0 0 0 0 0 0 0 0 0 0 0 0 0 0 0 0 0 0 0 0 0 0 0 0 0 0 0 0 0 0 0 0
0 0 0 0 0 0 0 0 0 0 0 0 0 0 0 0 0 0 0 0 0 0 0 0 0 0 0 0 0 0 0 0 0 0 0 0 0 0 0 0 0 0 0 0
0 0 0 0 0 0 0 0 0 0 0 0 0 0 0 0 0 0 0 0 0 0 0 0 0 0 0 0 0 0 0 0 0 0 0 0 0 0 0 0 0 0 0 0
0 0 0 0 0 0 0 0 0 0 0 0 0 0 0 0 0 0 0 0 0 0 0 0 0 0 0 0 0 0 0 0 0 0 0 0 0 0 0 0 0 0 0 0
0 0 0 0 0 0 0 0 0 0 0 0 0 0 0 0 0 0 0 0 0 0 0 0 0 0 0 0 0 0 0 0 0 0 0 0 0 0 0 0 0 0 0 0
0 0 0 0 0 0 0 0 0 0 0 0 0 0 0 0 0 0 0 0 0 0 0 0 0 0 0 0 0 0 0 0 0 0 0 0 0 0 0 0 0 0 0 0
0 0 0 0 0 0 0 0 0 0 0 0 0 0 0 0 0 0 0 0 0 0 0 0 0 0 0 0 0 0 0 0 0 0 0 0 0 0 0 0 0 0 0 0
0 0 0 0 0 0 0 0 0 0 0 0 0 0 0 0 0 0 0 0 0 0 0 0 0 0 0 0 0 0 0 0 0 0 0 0 0 0 0 0 0 0 0 0
0 0 0 0 0 0 0 0 0 0 0 0 0 0 0 0 0 0 0 0 0 0 0 0 0 0 0 0 0 0 0 0 0 0 0 0 0 0 0 0 0 0 0 0
0 0 0 0 0 0 0 0 0 0 0 0 0 0 0 0 0 0 0 0 0 0 0 0 0 0 0 0 0 0 0 0 0 0 0 0 0 0 0 0 0 0 0 0
0 0 0 0 0 0 0 0 0 0 0 0 0 0 0 0 0 0 0 0 0 0 0 0 0 0 0 0 0 0 0 0 0 0 0 0 0 0 0 0 0 0 0 0
Height
5704 5703 5701 5699 5697 5695 5692 5691 5689 5688 5684 5682 5680 5679 5678 5675 5672 5670 5668 5666 5663 5661 5659 5656 5654 5652 5651 5651 5653 5655 5658 5662 5665 5669 5673 5676 5677 5680 5684 5687 5690 5694 5698 5702
5697 5696 5693 5690 5688 5686 5684 5682 5680 5679 5675 5672 5671 5669 5667 5665 5662 5660 5657 5655 5653 5650 5647 5645 5642 5641 5640 5640 5641 5644 5646 5649 5652 5655 5659 5662 5664 5667 5670 5673 5676 5680 5684 5688
5689 5688 5685 5682 5680 5678 5675 5673 5671 5669 5666 5663 5661 5660 5658 5656 5653 5650 5648 5645 5642 5639 5637 5634 5632 5630 5630 5630 5630 5632 5634 5636 5639 5641 5645 5648 5650 5653 5656 5659 5663 5667 5670 5673
5681 5679 5676 5673 5671 5669 5666 5664 5662 5659 5656 5654 5652 5649 5649 5647 5643 5641 5638 5635 5632 5629 5626 5624 5622 5620 5619 5619 5619 5620 5622 5624 5626 5628 5631 5634 5637 5640 5644 5646 5650 5653 5656 5659
5672 5670 5667 5665 5662 5659 5657 5655 5652 5649 5646 5644 5642 5639 5640 5637 5634 5631 5628 5625 5622 5619 5616 5613 5611 5610 5609 5608 5607 5608 5610 5612 5614 5616 5618 5622 5624 5627 5630 5633 5636 5639 5642 5646
5663 5660 5658 5656 5653 5651 5648 5646 5643 5640 5637 5635 5634 5630 5628 5626 5624 5621 5618 5615 5612 5609 5606 5603 5601 5599 5598 5596 5596 5597 5599 5601 5603 5605 5607 5609 5612 5614 5617 5619 5623 5626 5629 5632
5653 5651 5649 5647 5644 5642 5639 5637 5634 5630 5627 5626 5624 5620 5620 5617 5614 5611 5608 5605 5602 5599 5596 5593 5591 5589 5587 5585 5585 5586 5587 5589 5591 5593 5595 5597 5599 5602 5604 5607 5610 5613 5616 5620
5642 5642 5640 5638 5636 5633 5630 5628 5625 5621 5618 5616 5613 5611 5611 5608 5604 5600 5597 5594 5591 5588 5586 5583 5580 5579 5577 5575 5574 5575 5576 5578 5580 5582 5584 5585 5587 5590 5593 5595 5598 5601 5604 5607
5631 5631 5630 5627 5625 5624 5621 5619 5616 5612 5607 5605 5603 5602 5602 5599 5595 5590 5587 5584 5581 5578 5576 5573 5571 5569 5567 5565 5564 5565 5565 5567 5569 5571 5573 5574 5575 5578 5581 5583 5586 5589 5591 5594
5621 5620 5619 5617 5615 5613 5611 5609 5606 5602 5597 5594 5593 5592 5592 5589 5585 5581 5577 5574 5571 5568 5566 5564 5561 5559 5557 5555 5555 5555 5556 5557 5559 5561 5562 5564 5565 5567 5569 5572 5575 5577 5579 5582
5610 5609 5608 5607 5605 5603 5601 5599 5596 5592 5589 5585 5581 5585 5583 5579 5575 5571 5568 5565 5561 5559 5556 5554 5552 5550 5548 5547 5546 5546 5546 5547 5549 5550 5552 5553 5555 5556 5558 5561 5564 5566 5568 5571
5599 5598 5597 5597 5595 5593 5591 5589 5586 5584 5580 5576 5571 5575 5574 5570 5565 5561 5558 5555 5552 5549 5546 5544 5542 5540 5538 5537 5536 5536 5536 5537 5539 5541 5542 5543 5544 5546 5548 5550 5553 5555 5558 5561
5588 5587 5587 5586 5587 5584 5581 5579 5576 5573 5570 5567 5563 5565 5563 5559 5555 5551 5548 5544 5541 5539 5536 5533 5531 5529 5528 5527 5526 5526 5527 5528 5530 5531 5532 5533 5534 5536 5538 5540 5543 5545 5547 5550
5576 5576 5577 5577 5574 5571 5570 5570 5567 5563 5560 5557 5555 5554 5553 5549 5544 5541 5538 5534 5531 5528 5525 5522 5520 5518 5517 5517 5516 5517 5518 5519 5519 5520 5522 5524 5525 5527 5529 5531 5533 5535 5537 5540
5564 5564 5564 5564 5563 5561 5560 5559 5557 5553 5551 5547 5546 5544 5543 5538 5534 5531 5527 5524 5521 5518 5515 5512 5509 5508 5507 5507 5507 5508 5509 5510 5510 5511 5513 5514 5516 5518 5520 5522 5523 5525 5528 5530
5552 5553 5553 5553 5553 5549 5549 5550 5547 5544 5542 5538 5535 5534 5534 5528 5525 5522 5518 5514 5511 5508 5505 5503 5501 5499 5498 5498 5498 5499 5500 5501 5501 5502 5504 5506 5507 5509 5511 5513 5515 5517 5518 5521
5541 5541 5540 5540 5541 5537 5538 5541 5538 5535 5532 5529 5525 5525 5522 5519 5516 5513 5509 5505 5502 5499 5497 5495 5493 5492 5490 5490 5491 5492 5492 5493 5494 5495 5496 5497 5499 5501 5503 5505 5506 5508 5510 5513
5530 5529 5527 5527 5528 5526 5531 5530 5527 5524 5522 5519 5516 5514 5511 5509 5506 5504 5500 5496 5493 5491 5489 5487 5486 5485 5484 5484 5484 5485 5485 5485 5486 5487 5488 5489 5491 5493 5495 5497 5499 5501 5503 5506
5519 5518 5516 5516 5514 5514 5519 5518 5515 5512 5511 5510 5506 5504 5501 5498 5496 5495 5492 5488 5485 5483 5481 5480 5479 5478 5478 5477 5477 5477 5478 5478 5479 5480 5481 5482 5484 5486 5488 5489 5492 5494 5496 5499
5508 5507 5506 5504 5502 5503 5508 5506 5503 5501 5500 5500 5496 5494 5492 5489 5487 5487 5483 5480 5478 5476 5475 5473 5473 5472 5471 5471 5471 5471 5471 5472 5473 5473 5474 5475 5477 5478 5480 5482 5484 5487 5489 5492
5496 5495 5495 5494 5491 5491 5496 5494 5492 5491 5490 5487 5485 5483 5481 5480 5478 5476 5474 5472 5470 5468 5467 5466 5465 5465 5464 5464 5463 5463 5464 5465 5466 5467 5468 5469 5470 5471 5473 5475 5477 5479 5482 5485
5484 5484 5484 5483 5482 5485 5484 5482 5481 5480 5477 5475 5473 5472 5471 5469 5468 5467 5465 5463 5462 5460 5459 5458 5458 5457 5456 5455 5455 5456 5457 5458 5459 5459 5461 5462 5463 5464 5466 5468 5470 5472 5474 5477
5472 5473 5472 5472 5474 5473 5471 5470 5469 5467 5466 5465 5463 5462 5460 5459 5458 5457 5455 5454 5453 5452 5451 5450 5449 5449 5449 5448 5448 5449 5449 5450 5451 5452 5453 5454 5455 5456 5458 5460 5462 5464 5467 5470
5461 5461 5460 5460 5462 5461 5459 5458 5457 5456 5455 5454 5453 5451 5450 5449 5449 5447 5446 5445 5444 5443 5443 5442 5442 5441 5441 5441 5441 5441 5442 5442 5443 5444 5445 5447 5448 5449 5451 5453 5455 5457 5460 5462
5451 5450 5449 5448 5450 5449 5449 5448 5446 5445 5444 5443 5442 5441 5440 5439 5439 5438 5437 5436 5436 5435 5435 5434 5434 5434 5433 5433 5434 5434 5435 5435 5436 5437 5438 5439 5440 5442 5444 5446 5448 5450 5453 5456
5441 5439 5438 5438 5439 5437 5438 5437 5436 5435 5434 5433 5432 5431 5430 5429 5429 5428 5428 5427 5427 5427 5427 5426 5426 5426 5426 5426 5427 5428 5428 5428 5429 5430 5431 5432 5434 5435 5437 5438 5441 5443 5446 5449
Wind_Speed
27 27 28 28 29 30 30 31 31 31 33 34 34 35 34 37 37 37 37 37 38 39 40 41 41 41 41 43 45 47 49 51 51 52 52 53 52 53 54 54 55 56 57 56
28 29 29 30 31 31 32 32 32 33 33 34 34 35 34 35 35 35 36 36 37 38 40 40 41 40 41 42 43 45 47 49 50 51 52 53 52 52 54 54 55 55 56 55
30 30 31 31 32 33 33 34 34 34 34 35 36 35 34 34 34 34 35 35 37 38 39 40 40 40 40 42 43 44 45 47 49 51 51 52 51 52 52 53 54 53 54 55
31 31 32 32 33 34 34 35 35 36 36 36 36 37 34 34 35 34 35 35 37 38 39 39 39 39 40 41 42 44 45 46 48 49 49 50 51 52 52 52 52 53 54 54
33 32 33 33 34 34 34 35 36 37 37 37 36 38 35 35 35 35 36 37 37 38 39 40 40 39 39 40 42 43 44 46 48 48 48 49 50 50 51 52 52 51 52 53
34 34 33 34 34 35 35 36 37 38 38 38 37 38 37 36 35 36 37 38 38 39 40 40 40 41 41 40 41 42 43 44 45 46 46 47 48 48 49 49 50 50 51 52
35 35 35 35 35 35 36 36 37 39 39 39 38 38 37 36 35 37 38 39 39 40 41 40 40 40 40 40 40 41 42 43 44 45 45 46 47 48 48 47 48 49 50 50
37 37 36 36 36 36 36 35 36 38 40 40 39 38 37 35 36 38 39 39 40 40 40 40 39 39 38 39 39 40 41 42 44 44 43 44 47 48 48 46 46 48 49 50
39 39 38 38 37 36 37 36 36 38 40 41 40 39 38 35 36 38 39 40 41 41 40 39 37 38 39 38 39 38 39 41 40 41 40 41 43 45 45 45 44 46 48 48
40 40 39 39 39 38 37 37 37 38 40 42 41 40 39 36 34 37 39 40 40 40 39 37 37 37 38 38 37 36 38 40 39 39 40 41 43 43 43 43 43 43 44 45
40 41 40 39 38 38 38 38 38 39 40 41 42 40 38 35 35 36 38 39 39 39 37 36 35 36 37 37 37 37 37 38 38 39 39 40 41 41 41 41 41 42 44 44
39 40 40 39 38 37 38 38 38 38 39 40 42 40 36 36 37 37 38 38 39 38 37 36 36 36 37 37 38 36 36 36 37 38 39 40 39 38 38 39 40 40 41 43
39 39 39 39 38 37 37 36 36 38 39 40 41 40 37 37 38 38 39 39 39 38 38 38 37 36 36 36 36 35 34 35 35 37 39 39 39 38 39 39 40 40 40 42
40 40 39 39 38 39 38 37 37 38 39 40 40 39 37 37 38 39 39 39 39 38 38 38 37 36 35 35 35 34 34 33 34 35 36 37 37 38 38 38 39 40 39 40
41 41 40 40 40 40 40 39 39 39 39 41 40 39 37 36 37 38 38 39 39 38 38 37 37 35 34 34 34 33 33 33 33 33 34 35 36 37 36 36 37 38 38 39
43 43 43 42 41 42 42 40 39 39 39 40 41 39 37 37 37 36 37 38 38 37 36 35 34 33 33 32 32 32 32 31 32 32 33 34 33 34 33 34 35 36 37 38
43 44 44 44 42 43 43 39 38 39 39 40 40 40 38 38 38 38 38 38 37 36 35 33 32 32 31 30 31 30 30 30 31 31 32 32 31 31 32 32 33 33 35 35
42 42 43 44 43 44 41 39 38 39 39 39 40 38 38 38 38 37 37 37 36 35 34 33 31 29 28 27 28 28 28 29 30 30 29 29 30 30 31 31 31 31 32 33
40 40 41 42 43 44 41 39 39 39 39 38 38 38 38 38 37 36 36 36 36 34 32 30 29 27 26 27 27 27 27 28 29 28 29 29 30 31 32 31 31 31 31 32
39 39 39 41 42 42 40 38 39 40 40 38 38 38 37 36 36 35 34 34 33 31 30 29 29 28 27 26 26 26 27 27 27 27 28 28 29 30 31 30 29 30 30 32
38 38 38 39 40 41 39 38 38 39 40 39 39 38 37 36 36 35 33 32 31 30 29 29 28 27 27 26 26 26 26 25 26 26 27 27 28 28 29 30 29 30 30 32
38 38 38 38 39 39 37 37 38 39 39 38 37 36 36 36 35 34 32 31 30 30 29 28 28 28 27 26 25 26 26 26 26 26 26 26 27 28 28 30 30 29 29 29
38 38 38 39 39 38 38 39 39 38 38 36 35 35 35 34 33 32 32 31 30 30 28 28 28 27 26 25 25 26 26 26 25 26 25 26 27 27 27 28 29 28 28 29
36 36 37 38 36 36 37 37 37 37 37 36 36 35 35 33 31 30 30 30 30 28 28 28 27 26 25 25 24 25 25 25 24 24 24 25 26 26 26 26 27 27 27 28
34 35 36 36 35 36 35 36 37 36 36 36 35 34 34 33 31 30 30 30 29 28 27 27 26 25 24 24 23 22 22 23 24 24 24 24 24 25 25 26 26 27 27 26
32 34 35 35 34 35 34 34 34 34 34 33 33 33 32 32 30 29 29 28 27 26 26 26 25 24 23 23 23 22 22 22 23 24 24 24 24 24 25 25 26 27 26 25
Wind_Direction
288 288 287 287 285 284 285 284 284 284 283 282 281 278 277 279 281 280 279 278 277 277 277 277 275 272 267 263 257 253 251 250 251 251 250 250 251 250 250 248 248 247 248 248
288 288 287 286 285 285 285 285 285 284 283 283 282 281 278 279 282 282 281 279 279 278 278 278 276 272 269 265 258 253 251 251 252 253 252 251 251 250 249 249 248 247 248 248
288 288 287 286 286 286 285 286 286 286 285 284 284 282 278 278 280 280 280 280 280 280 279 277 277 275 271 266 262 258 254 253 253 253 253 252 251 250 249 249 248 248 248 248
287 287 287 287 286 286 286 286 286 286 286 285 286 287 282 280 281 280 281 282 283 281 280 279 278 276 274 269 263 258 255 255 255 253 254 254 253 253 251 250 249 249 249 249
287 287 287 287 286 286 286 285 286 286 286 285 286 287 285 282 282 281 282 283 284 283 283 281 278 278 277 273 265 259 257 256 255 255 255 255 254 253 252 250 250 250 249 247
285 286 286 287 287 286 286 286 286 285 285 285 287 287 287 285 284 283 283 284 286 285 285 284 280 278 278 275 266 260 259 258 256 255 254 255 254 253 252 251 250 250 248 246
282 283 284 285 286 286 287 287 288 287 286 286 287 286 288 289 286 283 283 285 287 286 286 286 283 280 278 275 268 262 261 260 257 256 255 256 254 253 251 251 251 249 247 246
283 282 282 283 284 285 286 288 288 288 289 289 288 288 289 288 287 285 284 285 287 288 288 288 284 281 279 277 271 264 262 261 257 256 257 256 253 252 251 252 251 249 248 246
282 282 282 282 283 284 286 287 288 288 288 289 289 289 288 288 289 287 286 286 287 288 289 287 284 282 280 277 271 266 264 260 256 255 256 255 253 251 251 251 251 250 247 246
281 281 282 282 282 284 285 286 288 288 289 290 290 290 291 291 291 289 288 288 288 287 287 286 284 282 279 274 269 268 265 258 255 256 256 255 253 250 249 250 251 249 248 248
279 279 280 282 282 284 284 286 286 287 288 289 290 290 291 292 291 290 289 289 288 287 287 285 283 281 280 275 270 272 265 258 256 257 257 256 254 251 250 250 250 250 249 247
279 279 280 281 282 283 283 285 285 285 287 288 289 290 291 291 291 291 290 289 289 287 286 284 283 281 280 277 272 271 264 259 258 257 256 255 254 250 249 250 250 250 249 247
276 277 279 280 281 282 283 284 284 283 283 286 288 291 292 291 292 291 290 289 289 287 284 284 283 281 278 275 272 269 265 262 258 255 255 254 253 250 250 250 249 248 247 247
273 274 276 279 280 281 282 282 282 282 283 285 287 290 290 291 290 290 289 289 288 286 285 284 283 280 278 274 270 267 265 263 259 256 253 253 252 249 250 250 248 247 246 247
270 271 273 275 278 278 279 281 281 282 284 285 287 287 289 290 290 289 290 289 288 287 285 284 282 280 276 272 269 266 265 265 260 256 254 253 251 249 249 248 246 246 246 246
268 270 271 273 275 275 276 279 280 281 284 285 285 286 287 287 288 289 288 288 288 287 286 284 282 280 276 271 267 266 265 264 261 257 254 252 251 251 249 247 246 247 245 242
268 270 271 273 274 274 275 279 280 281 283 284 285 287 286 286 286 287 288 289 288 287 285 283 281 279 275 269 266 265 264 261 259 257 253 251 251 252 250 247 246 244 242 239
268 270 272 273 274 273 277 278 279 280 282 283 283 285 285 286 287 287 287 287 287 287 286 284 281 276 272 268 265 265 263 261 257 255 254 252 251 250 249 247 245 243 240 240
267 269 271 272 274 275 276 278 279 281 281 282 283 284 284 285 285 285 285 285 285 285 284 282 278 275 273 271 266 264 262 260 257 256 254 253 252 249 247 246 245 244 241 241
267 268 270 271 273 275 277 278 279 281 282 282 283 283 283 284 285 284 283 284 282 282 280 278 278 277 274 271 266 263 260 257 255 253 252 252 251 248 245 244 244 244 242 240
266 267 269 271 273 274 277 278 280 282 284 284 283 283 283 283 284 284 283 282 280 279 280 279 278 276 274 270 267 262 260 257 254 252 251 251 249 247 245 243 244 244 243 241
266 267 268 269 271 275 276 278 279 282 283 284 283 283 282 283 283 283 281 280 279 278 276 275 274 274 272 269 265 261 259 258 255 252 250 249 248 247 246 244 243 242 242 241
266 267 268 269 271 273 275 277 279 279 280 281 280 281 282 282 282 280 279 278 279 277 274 273 272 272 270 266 263 260 259 258 256 252 249 248 246 245 246 245 243 241 241 241
264 264 267 269 271 272 273 274 276 277 277 278 279 280 280 281 280 279 277 277 277 275 274 272 271 271 268 264 261 260 258 257 255 252 251 249 247 246 245 244 242 241 241 240
264 266 268 269 271 271 272 274 275 276 276 277 278 278 279 279 280 279 276 275 274 272 271 270 269 267 264 263 262 259 256 254 252 251 252 250 248 246 245 244 242 239 238 237
265 267 269 270 271 271 272 272 274 276 276 276 276 277 277 278 277 276 276 275 272 270 270 269 268 265 263 261 260 258 257 255 254 254 252 250 248 246 244 243 242 238 235 234